Location: Melque
(41.0517°N, 4.4694°W)
Time: 22:39:28
(UTC+00:00)

Cosmos 1758 Rocket - Visible Passes

Search period start: 12 March 2026 00:00
Search period end: 22 March 2026 00:00
Orbit: 596 x 627 km, 82.5° (Epoch: 12 March)

Date Brightness Start Highest point End Pass type
(mag) Time Alt. Az. Time Alt. Az. Time Alt. Az.
12 Mar 6.6 04:31:03 10° NNE 04:33:49 16° ENE 04:36:34 10° ESE visible
13 Mar 5.7 04:45:17 10° NNE 04:49:03 27° ENE 04:52:45 10° SE visible
13 Mar 5.3 18:52:19 10° SSW 18:56:29 39° WNW 19:00:40 10° N visible
14 Mar 4.6 04:59:57 10° N 05:04:11 48° E 05:08:21 10° SSE visible
14 Mar 6.4 19:08:06 10° SW 19:11:39 23° WNW 19:15:12 10° NNW visible
15 Mar 3.5 05:14:51 10° N 05:19:13 88° ENE 05:23:32 10° S visible
15 Mar 6.9 19:24:39 10° W 19:26:54 14° WNW 19:29:09 10° NW visible
16 Mar 6.7 03:53:54 10° NE 03:56:09 14° ENE 03:58:22 10° E visible
16 Mar 3.7 05:29:58 10° NNW 05:34:12 50° W 05:38:21 10° SSW visible
17 Mar 5.9 04:07:53 10° NNE 04:11:24 23° ENE 04:14:51 10° SE visible
17 Mar 4.4 05:45:22 10° NNW 05:49:04 28° W 05:52:44 10° SSW visible
18 Mar 4.9 04:22:26 10° N 04:26:33 40° ENE 04:30:36 10° SSE visible
19 Mar 3.7 04:37:16 10° N 04:41:37 74° E 04:45:54 10° SSE visible
20 Mar 6.7 03:16:57 10° NE 03:18:26 11° ENE 03:19:55 10° E visible
20 Mar 3.4 04:52:19 10° NNW 04:56:35 60° W 05:00:49 10° S visible
21 Mar 6.1 03:30:31 10° NNE 03:33:42 20° ENE 03:36:52 10° ESE visible
21 Mar 4.1 05:07:37 10° NNW 05:11:30 33° W 05:15:20 10° SSW visible
